HULIANWANG DIGUI-79

导读

“HULIANWANG DIGUI-79”是中国于2025年8月25日发射的卫星,属于互联网低轨星座组网卫星。该卫星旨在支撑全球覆盖的低轨互联网通信网络建设,提升卫星互联网的接入能力与服务范围,可面向全球用户提供无缝衔接的高速网络接入服务,助力中国天地一体化信息网络构建,推动卫星通信技术产业化应用。

基本信息
目录编号:
65311
目录名称:
HULIANWANG DIGUI-79
国际标识:
2025-187G
轨道中心:
EARTH
卫星名称:
HULIANWANG DIGUI-79
卫星全名:
HULIANWANG DIGUI-79
卫星状态:
在轨 (已飞行291 天)
发射日期:
2025-08-25 UTC
国别 :
中国 (CN)
星等 :
--
轨道信息
数据来源 国际轨道数据 AOE轨道数据
星历时间 2026-06-12T14:49:02+0800
13小时前
查看轨道信息
2026-06-12T04:00:00+0800
1天前
查看轨道信息
半长轴 7527.467km 7527.465km
偏心率 0.0000478 0.0000083
轨道倾角 50.003° 50.006°
近地点辐角 177.963° 103.163°
升交点赤经 223.729° 225.350°
平近点角 182.125° 258.629°
近地点 1148.97km 1149.265km
远地点 1149.69km 1149.391km
周期 108.326分钟 108.326分钟
每日圈数 13.2932 13.293204
详细信息
使用方式:
暂无
2D轨道图
3D轨道图
轨道高度分析图
轨道倾角分析图
轨道综合分析图
查看轨道综合分析图